Location: Huntsville
(41.2590°N, 111.7678°W)
Time: 04:47:44
(UTC+00:00)

N. Korean satellite - Pass Details

Date: 02 December 2021
Orbit: 447 x 491 km, 97.3° (Epoch: 25 January)

Event Time Altitude Azimuth Distance (km) Brightness Sun altitude
Rises 12:04:22 0° 24° (NNE) 2,464 10.4 -27.6°
Reaches altitude 10° 12:06:40 10° 39° (NE) 1,583 9.5 -27.2°
Maximum altitude 12:09:31 25° 96° (E) 952 8.7 -26.6°
Drops below altitude 10° 12:12:20 10° 153° (SSE) 1,567 9.5 -26.1°
Sets 12:14:35 0° 167° (SSE) 2,434 10.4 -25.7°
